LOGRONO / AGONCILLO current weather conditions

sailwx.info

Wind from 260 at 9 knots

Air temperature 7.0° C
Visibility: greater than 5.4 NM
Dewpoint 5.0° C

Last reported at 2014-Dec-20 04:00 UTC.
Time now 2014-Dec-20 05:54 UTC

Location: N 42°27' W 002°20'.
View on Google Maps.

See reports from other nearby stations

  
Tides and Currents Weather Stations Pressure Air Temp Water Temp Dewpoint Dewpoint Depression Visibility Wind Speed Wind Dir Waves Ship Positions
date/time (UTC)wind fromknots sea level pressurealtimeterstation pressurevisibilityair tempwater tempwave heightnotes
2014-Dec-20 04:00 260 9 5.4 7.0
2014-Dec-20 03:00 270 11 5.4 6.0
2014-Dec-20 02:00 270 9 5.4 6.0
2014-Dec-20 00:00 290 8 5.0
2014-Dec-19 23:00 250 7 4.0
2014-Dec-19 22:00 260 7 4.0
2014-Dec-19 21:00 280 7 4.0
2014-Dec-19 20:00 270 8 4.0
2014-Dec-19 19:00 280 6 5.0
2014-Dec-19 16:00 260 12 9.0
2014-Dec-19 15:00 260 14 10.0
2014-Dec-19 14:00 260 14 10.0
2014-Dec-19 13:00 260 15 10.0
2014-Dec-19 11:00 270 15 5.4 9.0
2014-Dec-19 10:00 290 12 5.4 7.0
2014-Dec-19 09:00 290 11 5.4 7.0
2014-Dec-19 08:00 280 12 5.4 7.0
2014-Dec-19 07:00 270 10 5.4 8.0
2014-Dec-19 06:00 260 12 5.4 8.0
2014-Dec-19 05:00 280 11 5.4 9.0
2014-Dec-19 04:00 270 6 5.4 9.0
2014-Dec-19 02:00 270 5 5.410.0
2014-Dec-19 01:00 270 3 5.4 9.0
2014-Dec-19 00:00 5.4 9.0
2014-Dec-18 23:00 5.4 9.0
2014-Dec-18 22:00 270 5 5.4 9.0
2014-Dec-18 21:00 290 7 9.0
2014-Dec-18 19:00 280 3 9.0
2014-Dec-18 18:00 280 7 9.0
2014-Dec-18 15:00 260 10 14.0
2014-Dec-18 13:00 260 9 14.0
2014-Dec-18 10:00 280 12 10.0
2014-Dec-18 09:00 250 7 5.4 9.0
2014-Dec-18 08:00 260 10 5.4 8.0
2014-Dec-18 06:00 270 9 5.4 8.0
2014-Dec-18 05:00 280 11 5.4 9.0